Location: Decatur(IL)
(39.8400°N, 88.9550°W)
Time: 03:56:10
(UTC-05:00)

Cosmos 1953 - Visible Passes

Search period start: 22 April 2018 00:00
Search period end: 02 May 2018 00:00
Orbit: 541 x 558 km, 82.5° (Epoch: 21 April)

Date Brightness Start Highest point End Pass type
(mag) Time Alt. Az. Time Alt. Az. Time Alt. Az.
22 Apr 2.6 04:30:48 10° N 04:34:53 71° E 04:38:55 10° SSE visible
23 Apr 2.4 04:26:25 10° N 04:30:30 78° E 04:34:32 10° S visible
24 Apr 2.3 04:22:02 10° N 04:26:08 86° E 04:29:48 12° S visible
25 Apr 2.2 04:17:39 10° N 04:21:45 86° W 04:24:30 20° S visible
26 Apr 2.2 04:13:17 10° N 04:17:22 78° W 04:19:21 29° S visible
27 Apr 2.2 04:08:55 10° NNW 04:12:59 70° W 04:14:19 40° SSW visible
28 Apr 2.3 04:04:33 10° NNW 04:08:36 63° W 04:09:23 50° SSW visible
29 Apr 5.4 02:26:54 10° ENE 02:27:23 10° ENE 02:27:52 10° ENE visible
29 Apr 2.3 04:00:12 10° NNW 04:04:12 57° W 04:04:32 55° WSW visible
30 Apr 5.3 02:21:48 10° NE 02:23:03 11° ENE 02:24:03 10° E visible
30 Apr 2.5 03:55:51 10° NNW 03:59:44 51° W 03:59:44 51° W visible
01 May 5.2 02:17:01 10° NE 02:18:42 12° ENE 02:19:18 12° E visible
01 May 2.8 03:51:30 10° NNW 03:55:00 44° WNW 03:55:00 44° WNW visible
